Regional Weather Roundup
Issued by NWS

Home | Current Version | Previous Version | Graphics & Text | Print | Product List | Glossary On
Versions: 1 2 3 4 5 6 7 8 9 10 11 12 13 14 15 16 17 18 19 20 21 22 23 24 25 26 27 28 29 30 31 32 33 34 35 36 37 38 39 40 41 42 43 44 45 46 47 48 49 50
947
ASUS43 KLSX 181657
RWRMO

WEATHER SUMMARY FOR MISSOURI
NATIONAL WEATHER SERVICE SPRINGFIELD MO
1100 AM CST WED JAN 18 2017

NOTE: "FAIR" INDICATES FEW OR NO CLOUDS BELOW 12,000 FEET WITH NO
       SIGNIFICANT WEATHER AND/OR OBSTRUCTIONS TO VISIBILITY.
       CURRENT SKY AND/OR WEATHER CONDITIONS ARE NOT AVAILABLE FOR
       CHILLICOTHE AND FARMINGTON.

MOZ001>031-035>038-043-044-053-054-181800-
...NORTHERN AND WESTERN MISSOURI...

CITY           SKY/WX    TMP DP  RH WIND       PRES   REMARKS
KANSAS CTY INT FOG       34  32  92 S12       30.15R VSB 1/2 WCI  25
LEE`S SUMMIT   FOG       36  36 100 S8        30.16F VSB 3/4 WCI  30
ST JOSEPH      MOSUNNY   35  35 100 S8        30.14S WCI  29
CHILLICOTHE      N/A     35  35 100 S8        30.17F WCI  29

$$
MOZ066>068-077>081-088>096-101>105-181800-
...SOUTHWEST MISSOURI...

CITY           SKY/WX    TMP DP  RH WIND       PRES   REMARKS
SPRINGFIELD    CLOUDY    43  36  76 SE5       30.16F
JOPLIN         CLOUDY    43  39  86 E3        30.16F
BRANSON        FOG       37  37 100 E5        30.20R VSB 1/16

$$
MOZ032>034-039>042-045>050-055>058-069>072-181800-
...CENTRAL MISSOURI...

CITY           SKY/WX    TMP DP  RH WIND       PRES   REMARKS
COLUMBIA       NOT AVBL
JEFFERSON CITY MOSUNNY   40  33  76 VRB6      30.21F
ROLLA          SUNNY     41  35  79 SE7       30.17F
SEDALIA        CLOUDY    38  36  92 SW9       30.20F
WARRENSBURG    CLOUDY    37  36  93 SE8       30.18F

$$
MOZ051-052-059>065-181800-
...EAST CENTRAL MISSOURI...

CITY           SKY/WX    TMP DP  RH WIND       PRES   REMARKS
ST LOUIS INTL  NOT AVBL

$$
MOZ072>076-082>087-097>100-106>115-181800-
...SOUTH CENTRAL AND SOUTHEAST MISSOURI...

CITY           SKY/WX    TMP DP  RH WIND       PRES   REMARKS
CAPE GIRARDEAU CLOUDY    42  35  76 CALM      30.25F
POPLAR BLUFF   CLOUDY    43  39  86 NE5       30.25F
WEST PLAINS    CLOUDY    38  36  92 E6        30.21S

$$



USA.gov is the U.S. government's official web portal to all federal, state and local government web resources and services.